sat.trackr.live / text

‹ back to catalog

NVS-01 (IRNSS-1J)

NORAD 56759 · 2023-076A

PAYLOAD ACTIVE UNKNOWN

§ Identity

Operator
Country
IND
Launch date
2023-05-29
Launch site
SRILR
Launch vehicle
Mass (kg)
RCS (m²)

Purposes: comms, nav

External: N2YO · Heavens-Above · Gunter

§ Orbital elements

Epoch: 2026-05-25T04:21:36.217152Z

Period
1,436.02 min
Inclination
2.2185°
Eccentricity
0.0003395
Mean motion
1.00276858 rev/d
Perigee alt
35,770.9 km
Apogee alt
35,799.5 km
Semi-major
42,163.3 km
B*
0.0000e+0
RAAN
245.3582°
Arg perigee
47.7257°
Mean anomaly
144.5850°
Rev number
1,088

§ Raw data

NVS-01 (IRNSS-1J)1 56759U 23076A   26145.18166918 -.00000337  00000+0  00000+0 0  99902 56759   2.2185 245.3582 0003395  47.7257 144.5850  1.00276858 10884

JSON: /api/v1/satellites/56759 · /tle

For live sub-satellite position, see the globe view (requires WebGL).

§ Visibility from observer

Set your observer location to see the next 7 days of passes ≥ 10°. The values pass through the URL so the page stays shareable.

No JS? Fill the form by hand. The geolocation button needs JavaScript.